Regional Weather Roundup
Issued by NWS Cleveland, OH

Home | Current Version | Previous Version | Text Only | Print | Product List | Glossary Off
Versions: 1 2 3 4 5 6 7 8 9 10 11 12 13 14 15 16 17 18 19 20 21 22 23 24 25 26 27 28 29 30 31 32 33 34 35 36 37 38 39 40 41 42 43 44 45 46 47 48 49 50

000
ASUS41 KCLE 221302
RWRCLE
OHIO REGIONAL WEATHER ROUNDUP
NATIONAL WEATHER SERVICE CLEVELAND, OH
800 AM EST MON DEC 22 2014

NOTE: "FAIR" INDICATES FEW OR NO CLOUDS BELOW 12,000 FEET WITH NO
SIGNIFICANT WEATHER AND/OR OBSTRUCTIONS TO VISIBILITY.

OHZ001>008-015>018-024>027-034-035-043-044-221400-
   NORTHWEST OHIO

CITY           SKY/WX    TMP DP  RH WIND       PRES   REMARKS
DEFIANCE       PTCLDY    25  21  85 E7        30.06F FOG     WCI  17
FINDLAY        PTCLDY    25  21  85 E6        30.05F FOG     WCI  18
TOLEDO EXPRESS PTCLDY    23  19  85 E5        30.08S FOG     WCI  17
TOLEDO EXEC    PTCLDY    24  20  84 E5        30.11R FOG     WCI  18
LIMA           CLOUDY    27  22  81 E7        30.03F HAZE    WCI  19
$$

OHZ009>014-019>023-028>033-038-089-221400-
   NORTHEAST OHIO

CITY           SKY/WX    TMP DP  RH WIND       PRES   REMARKS
CLE-HOPKINS    PTCLDY    24  20  84 CALM      30.14R
CLE-LAKEFRONT  CLEAR     28  21  75 S5        30.11R WCI  23
CUY CO. ARPT   PTCLDY    28  23  80 SE12      30.11S WCI  18
LORAIN-ELYRIA  CLEAR     23  20  88 S5        30.11R FOG     WCI  17
ASHTABULA      CLOUDY    26  21  81 SE9       30.13F WCI  17
AKRON-CANTON   MOCLDY    25  20  81 SE6       30.09S FOG     WCI  18
WOOSTER        CLEAR     21  18  88 CALM      30.10R FOG
MANSFIELD      CLEAR     22  20  92 SE3       30.07R FOG
YOUNGSTOWN     MOCLDY    24  20  84 E10       30.10F WCI  14
$$

OHZ042-051>053-060>062-070>072-077>081-221400-
  SOUTHWEST OHIO

CITY           SKY/WX    TMP DP  RH WIND       PRES   REMARKS
CINC-COVINGTON CLOUDY    35  26  69 SE7       30.01S WCI  29
CINC-LUNKEN    CLOUDY    31  28  89 CALM      30.05S
HAMILTON       CLOUDY    32  30  92 CALM      30.04S
DAYTON         CLOUDY    31  26  82 E8        30.03S WCI  23
WRIGHT-PAT AFB CLOUDY    31  27  84 E3        30.03F
DAYTON GENERAL CLOUDY    32  27  81 E7        30.01S WCI  26
WILMINGTON     CLOUDY    29  26  89 E5        30.03S FOG     WCI  24
$$

OHZ036-037-039>041-045>050-054>059-063>069-073>076-082>088-221400-
  CENTRAL AND SOUTHEAST OHIO

CITY           SKY/WX    TMP DP  RH WIND       PRES   REMARKS
COLUMBUS       CLOUDY    30  25  81 E5        30.07R WCI  25
OSU AIRPORT    CLOUDY    28  24  85 E6        30.06S WCI  22
BOLTON FIELD   CLOUDY    28  25  86 E3        30.07R FOG
RICKENBACK AFB NOT AVBL
NEWARK         CLOUDY    27  22  81 CALM      30.09R
MARION         CLOUDY    27  22  81 SE7       30.07S HAZE    WCI  19
LANCASTER      CLOUDY    32  26  78 CALM      30.08R HAZE
ZANESVILLE     CLOUDY    25  22  88 CALM      30.08S FOG
NEW PHILLY     CLOUDY    23  19  85 CALM      30.12R
$$



USA.gov is the U.S. government's official web portal to all federal, state and local government web resources and services.